Time,TemperatureF,DewpointF,PressureIn,WindDirection,WindDirectionDegrees,WindSpeedMPH,WindSpeedGustMPH,Humidity,HourlyPrecipIn,Conditions,Clouds,dailyrainin,SolarRadiationWatts/m^2,SoftwareType,DateUTC
2013-02-16 00:11:00,-8.0,-14.0,-100.00,South,188,0.0,0.0,76,-99.99,,,0.00,0.000000,,2013-02-16 06:11:00,
2013-02-16 00:21:00,-8.0,-14.0,-100.00,South,188,0.0,0.0,76,-99.99,,,0.00,0.000000,,2013-02-16 06:21:00,
2013-02-16 01:21:00,-9.0,-14.0,-100.00,NNE,32,1.0,3.0,77,-99.99,,,0.00,0.000000,,2013-02-16 07:21:00,
2013-02-16 02:21:00,-7.0,-13.0,-100.00,NNE,29,0.0,3.0,75,-99.99,,,0.00,0.000000,,2013-02-16 08:21:00,
2013-02-16 03:21:00,-8.0,-14.0,-100.00,NNE,23,2.0,3.0,74,-99.99,,,0.00,0.000000,,2013-02-16 09:21:00,
2013-02-16 04:21:00,-7.0,-13.0,-100.00,NE,42,1.0,3.0,75,-99.99,,,0.00,0.000000,,2013-02-16 10:21:00,
2013-02-16 05:22:00,-7.0,-13.0,-100.00,NE,46,1.0,3.0,75,-99.99,,,0.00,0.000000,,2013-02-16 11:22:00,
2013-02-16 06:12:00,-8.0,-14.0,-100.00,ENE,71,1.0,4.0,75,-99.99,,,0.00,0.000000,,2013-02-16 12:12:00,
2013-02-16 06:22:00,-8.0,-14.0,-100.00,ENE,71,1.0,4.0,75,-99.99,,,0.00,0.000000,,2013-02-16 12:22:00,
2013-02-16 07:12:00,-10.0,-16.0,-100.00,NE,50,2.0,3.0,74,-99.99,,,-99.99,0.000000,,2013-02-16 13:12:00,
2013-02-16 07:21:00,-10.0,-16.0,-100.00,NE,50,2.0,3.0,74,-99.99,,,-99.99,0.000000,,2013-02-16 13:21:00,
2013-02-16 08:11:00,-7.0,-13.0,-100.00,ENE,69,2.0,4.0,75,-99.99,,,0.00,9.000000,,2013-02-16 14:11:00,
2013-02-16 08:21:00,-7.0,-13.0,-100.00,ENE,69,2.0,4.0,75,-99.99,,,0.00,9.000000,,2013-02-16 14:21:00,
2013-02-16 08:51:00,2.0,-3.0,-100.00,East,86,2.0,5.0,79,-99.99,,,0.00,142.000000,,2013-02-16 14:51:00,
2013-02-16 09:21:00,2.0,-3.0,-100.00,East,86,2.0,5.0,79,-99.99,,,0.00,142.000000,,2013-02-16 15:21:00,
2013-02-16 09:32:00,2.0,-3.0,-100.00,East,86,2.0,5.0,79,-99.99,,,0.00,142.000000,,2013-02-16 15:32:00,
2013-02-16 09:42:00,2.0,-3.0,-100.00,East,86,2.0,5.0,79,-99.99,,,0.00,142.000000,,2013-02-16 15:42:00,
2013-02-16 09:51:00,8.0,3.0,-100.00,ESE,114,4.0,6.0,79,0.00,,,0.00,326.000000,,2013-02-16 15:51:00,
2013-02-16 10:11:00,8.0,3.0,-100.00,ESE,114,4.0,6.0,79,0.00,,,0.00,326.000000,,2013-02-16 16:11:00,
2013-02-16 10:21:00,8.0,3.0,-100.00,ESE,114,4.0,6.0,79,0.00,,,0.00,326.000000,,2013-02-16 16:21:00,
2013-02-16 10:32:00,8.0,3.0,-100.00,ESE,114,4.0,6.0,79,0.00,,,0.00,326.000000,,2013-02-16 16:32:00,
2013-02-16 10:41:00,8.0,3.0,-100.00,ESE,114,4.0,6.0,79,0.00,,,0.00,326.000000,,2013-02-16 16:41:00,
2013-02-16 10:51:00,13.0,7.0,-100.00,SE,131,8.0,12.0,75,0.00,,,0.00,458.000000,,2013-02-16 16:51:00,
2013-02-16 11:22:00,13.0,7.0,-100.00,SE,131,8.0,12.0,75,0.00,,,0.00,458.000000,,2013-02-16 17:22:00,
2013-02-16 11:32:00,13.0,7.0,-100.00,SE,131,8.0,12.0,75,0.00,,,0.00,458.000000,,2013-02-16 17:32:00,
2013-02-16 11:42:00,13.0,7.0,-100.00,SE,131,8.0,12.0,75,0.00,,,0.00,458.000000,,2013-02-16 17:42:00,
2013-02-16 11:51:00,15.0,8.0,-100.00,SE,142,10.0,15.0,73,0.00,,,0.00,568.000000,,2013-02-16 17:51:00,
2013-02-16 12:11:00,15.0,8.0,-100.00,SE,142,10.0,15.0,73,0.00,,,0.00,568.000000,,2013-02-16 18:11:00,
2013-02-16 12:21:00,15.0,8.0,-100.00,SE,142,10.0,15.0,73,0.00,,,0.00,568.000000,,2013-02-16 18:21:00,
2013-02-16 12:33:00,15.0,8.0,-100.00,SE,142,10.0,15.0,73,0.00,,,0.00,568.000000,,2013-02-16 18:33:00,
2013-02-16 12:42:00,15.0,8.0,-100.00,SE,142,10.0,15.0,73,0.00,,,0.00,568.000000,,2013-02-16 18:42:00,
2013-02-16 12:51:00,16.0,9.0,-100.00,SE,138,10.0,15.0,72,0.00,,,0.00,519.000000,,2013-02-16 18:51:00,
2013-02-16 13:11:00,16.0,9.0,-100.00,SE,138,10.0,15.0,72,0.00,,,0.00,519.000000,,2013-02-16 19:11:00,
2013-02-16 13:21:00,16.0,9.0,-100.00,SE,138,10.0,15.0,72,0.00,,,0.00,519.000000,,2013-02-16 19:21:00,
2013-02-16 13:31:00,16.0,9.0,-100.00,SE,138,10.0,15.0,72,0.00,,,0.00,519.000000,,2013-02-16 19:31:00,
2013-02-16 13:42:00,16.0,9.0,-100.00,SE,138,10.0,15.0,72,0.00,,,0.00,519.000000,,2013-02-16 19:42:00,
2013-02-16 13:51:00,17.0,10.0,-100.00,SE,138,11.0,15.0,73,0.00,,,0.00,501.000000,,2013-02-16 19:51:00,
2013-02-16 14:11:00,17.0,10.0,-100.00,SE,138,11.0,15.0,73,0.00,,,0.00,501.000000,,2013-02-16 20:11:00,
2013-02-16 14:21:00,17.0,10.0,-100.00,SE,138,11.0,15.0,73,0.00,,,0.00,501.000000,,2013-02-16 20:21:00,
2013-02-16 14:32:00,17.0,10.0,-100.00,SE,138,11.0,15.0,73,0.00,,,0.00,501.000000,,2013-02-16 20:32:00,
2013-02-16 14:42:00,17.0,10.0,-100.00,SE,138,11.0,15.0,73,0.00,,,0.00,501.000000,,2013-02-16 20:42:00,
2013-02-16 14:51:00,18.0,11.0,-100.00,SE,140,12.0,15.0,74,0.00,,,0.00,396.000000,,2013-02-16 20:51:00,
2013-02-16 15:11:00,18.0,11.0,-100.00,SE,140,12.0,15.0,74,0.00,,,0.00,396.000000,,2013-02-16 21:11:00,
2013-02-16 15:21:00,18.0,11.0,-100.00,SE,140,12.0,15.0,74,0.00,,,0.00,396.000000,,2013-02-16 21:21:00,
2013-02-16 15:32:00,18.0,11.0,-100.00,SE,140,12.0,15.0,74,0.00,,,0.00,396.000000,,2013-02-16 21:32:00,
2013-02-16 15:41:00,18.0,11.0,-100.00,SE,140,12.0,15.0,74,0.00,,,0.00,396.000000,,2013-02-16 21:41:00,
2013-02-16 15:51:00,19.0,12.0,-100.00,SE,135,10.0,15.0,74,0.00,,,0.00,392.000000,,2013-02-16 21:51:00,
2013-02-16 16:11:00,19.0,12.0,-100.00,SE,135,10.0,15.0,74,0.00,,,0.00,392.000000,,2013-02-16 22:11:00,
2013-02-16 16:21:00,19.0,12.0,-100.00,SE,135,10.0,15.0,74,0.00,,,0.00,392.000000,,2013-02-16 22:21:00,
2013-02-16 16:32:00,19.0,12.0,-100.00,SE,135,10.0,15.0,74,0.00,,,0.00,392.000000,,2013-02-16 22:32:00,
2013-02-16 16:42:00,19.0,12.0,-100.00,SE,135,10.0,15.0,74,0.00,,,0.00,392.000000,,2013-02-16 22:42:00,
2013-02-16 16:51:00,18.0,12.0,-100.00,SE,126,11.0,17.0,76,0.00,,,0.00,207.000000,,2013-02-16 22:51:00,
2013-02-16 17:21:00,18.0,12.0,-100.00,SE,126,11.0,17.0,76,0.00,,,0.00,207.000000,,2013-02-16 23:21:00,
2013-02-16 17:31:00,18.0,12.0,-100.00,SE,126,11.0,17.0,76,0.00,,,0.00,207.000000,,2013-02-16 23:31:00,
2013-02-16 17:42:00,18.0,12.0,-100.00,SE,126,11.0,17.0,76,0.00,,,0.00,207.000000,,2013-02-16 23:42:00,
2013-02-16 17:51:00,18.0,13.0,-100.00,SE,132,8.0,14.0,79,0.00,,,0.00,48.000000,,2013-02-16 23:51:00,
2013-02-16 18:22:00,18.0,13.0,-100.00,SE,132,8.0,14.0,79,0.00,,,0.00,48.000000,,2013-02-17 00:22:00,
2013-02-16 18:32:00,18.0,13.0,-100.00,SE,132,8.0,14.0,79,0.00,,,0.00,48.000000,,2013-02-17 00:32:00,
2013-02-16 18:41:00,18.0,13.0,-100.00,SE,132,8.0,14.0,79,0.00,,,0.00,48.000000,,2013-02-17 00:41:00,
2013-02-16 18:51:00,17.0,12.0,-100.00,ESE,116,7.0,11.0,81,0.00,,,0.00,1.000000,,2013-02-17 00:51:00,
2013-02-16 19:21:00,17.0,12.0,-100.00,ESE,116,7.0,11.0,81,0.00,,,0.00,1.000000,,2013-02-17 01:21:00,
2013-02-16 19:31:00,17.0,12.0,-100.00,ESE,116,7.0,11.0,81,0.00,,,0.00,1.000000,,2013-02-17 01:31:00,
2013-02-16 19:41:00,17.0,12.0,-100.00,ESE,116,7.0,11.0,81,0.00,,,0.00,1.000000,,2013-02-17 01:41:00,
2013-02-16 19:51:00,14.0,10.0,-100.00,ESE,105,8.0,12.0,84,0.00,,,0.00,0.000000,,2013-02-17 01:51:00,
2013-02-16 20:21:00,14.0,10.0,-100.00,ESE,105,8.0,12.0,84,0.00,,,0.00,0.000000,,2013-02-17 02:21:00,
2013-02-16 20:31:00,14.0,10.0,-100.00,ESE,105,8.0,12.0,84,0.00,,,0.00,0.000000,,2013-02-17 02:31:00,
2013-02-16 20:41:00,14.0,10.0,-100.00,ESE,105,8.0,12.0,84,0.00,,,0.00,0.000000,,2013-02-17 02:41:00,
2013-02-16 20:51:00,12.0,8.0,-100.00,ESE,110,6.0,11.0,84,0.00,,,0.00,0.000000,,2013-02-17 02:51:00,
2013-02-16 21:11:00,12.0,8.0,-100.00,ESE,110,6.0,11.0,84,0.00,,,0.00,0.000000,,2013-02-17 03:11:00,
2013-02-16 21:21:00,12.0,8.0,-100.00,ESE,110,6.0,11.0,84,0.00,,,0.00,0.000000,,2013-02-17 03:21:00,
2013-02-16 21:31:00,12.0,8.0,-100.00,ESE,110,6.0,11.0,84,0.00,,,0.00,0.000000,,2013-02-17 03:31:00,
2013-02-16 21:42:00,12.0,8.0,-100.00,ESE,110,6.0,11.0,84,0.00,,,0.00,0.000000,,2013-02-17 03:42:00,
2013-02-16 21:51:00,12.0,9.0,-100.00,SE,127,3.0,8.0,86,0.00,,,0.00,0.000000,,2013-02-17 03:51:00,
2013-02-16 22:11:00,12.0,9.0,-100.00,SE,127,3.0,8.0,86,0.00,,,0.00,0.000000,,2013-02-17 04:11:00,
2013-02-16 22:21:00,12.0,9.0,-100.00,SE,127,3.0,8.0,86,0.00,,,0.00,0.000000,,2013-02-17 04:21:00,
2013-02-16 22:31:00,12.0,9.0,-100.00,SE,127,3.0,8.0,86,0.00,,,0.00,0.000000,,2013-02-17 04:31:00,
2013-02-16 22:41:00,12.0,9.0,-100.00,SE,127,3.0,8.0,86,0.00,,,0.00,0.000000,,2013-02-17 04:41:00,
2013-02-16 22:51:00,14.0,10.0,-100.00,ESE,122,6.0,9.0,84,0.00,,,0.00,0.000000,,2013-02-17 04:51:00,
2013-02-16 23:22:00,14.0,10.0,-100.00,ESE,122,6.0,9.0,84,0.00,,,0.00,0.000000,,2013-02-17 05:22:00,
2013-02-16 23:33:00,14.0,10.0,-100.00,ESE,122,6.0,9.0,84,0.00,,,0.00,0.000000,,2013-02-17 05:33:00,
2013-02-16 23:42:00,14.0,10.0,-100.00,ESE,122,6.0,9.0,84,0.00,,,0.00,0.000000,,2013-02-17 05:42:00,
2013-02-16 23:51:00,14.0,10.0,-100.00,SE,134,6.0,9.0,84,0.00,,,0.00,0.000000,,2013-02-17 05:51:00,